Year,Month,Day,Hour,Minute,Value (Times are PST for windspeed in km/hr)
2011,03,02,00,00,1.60
2011,03,02,00,01,1.60
2011,03,02,00,02,1.60
2011,03,02,00,03,4.10
2011,03,02,00,04,4.70
2011,03,02,00,05,3.10
2011,03,02,00,06,1.20
2011,03,02,00,07,0.70
2011,03,02,00,08,1.90
2011,03,02,00,09,2.30
2011,03,02,00,10,4.00
2011,03,02,00,11,0.20
2011,03,02,00,12,0.30
2011,03,02,00,13,1.30
2011,03,02,00,14,1.40
2011,03,02,00,15,1.80
2011,03,02,00,16,2.30
2011,03,02,00,17,2.90
2011,03,02,00,18,5.50
2011,03,02,00,19,2.80
2011,03,02,00,20,4.70
2011,03,02,00,21,3.90
2011,03,02,00,22,8.10
2011,03,02,00,23,3.50
2011,03,02,00,24,3.00
2011,03,02,00,25,0.70
2011,03,02,00,26,1.20
2011,03,02,00,27,2.80
2011,03,02,00,28,2.90
2011,03,02,00,29,3.80
2011,03,02,00,30,4.80
2011,03,02,00,31,1.80
2011,03,02,00,32,2.10
2011,03,02,00,33,1.40
2011,03,02,00,34,1.10
2011,03,02,00,35,1.90
2011,03,02,00,36,1.90
2011,03,02,00,37,0.70
2011,03,02,00,38,1.40
2011,03,02,00,39,2.50
2011,03,02,00,40,2.00
2011,03,02,00,41,2.60
2011,03,02,00,42,3.70
2011,03,02,00,43,2.70
2011,03,02,00,44,3.00
2011,03,02,00,45,1.60
2011,03,02,00,46,1.90
2011,03,02,00,47,5.60
2011,03,02,00,48,3.30
2011,03,02,00,49,5.20
2011,03,02,00,50,2.40
2011,03,02,00,51,5.20
2011,03,02,00,52,3.90
2011,03,02,00,53,4.70
2011,03,02,00,54,4.00
2011,03,02,00,55,4.70
2011,03,02,00,56,0.80
2011,03,02,00,57,3.70
2011,03,02,00,58,5.90
2011,03,02,00,59,1.70
2011,03,02,01,00,5.60
2011,03,02,01,01,4.60
2011,03,02,01,02,1.00
2011,03,02,01,03,1.20
2011,03,02,01,04,2.60
2011,03,02,01,05,0.40
2011,03,02,01,06,1.20
2011,03,02,01,07,3.60
2011,03,02,01,08,4.70
2011,03,02,01,09,3.30
2011,03,02,01,10,2.70
2011,03,02,01,11,4.10
2011,03,02,01,12,3.50
2011,03,02,01,13,1.00
2011,03,02,01,14,2.10
2011,03,02,01,15,1.90
2011,03,02,01,16,2.60
2011,03,02,01,17,1.80
2011,03,02,01,18,3.20
2011,03,02,01,19,2.10
2011,03,02,01,20,2.20
2011,03,02,01,21,1.30
2011,03,02,01,22,0.30
2011,03,02,01,23,2.20
2011,03,02,01,24,4.20
2011,03,02,01,25,3.50
2011,03,02,01,26,2.10
2011,03,02,01,27,3.00
2011,03,02,01,28,1.90
2011,03,02,01,29,4.50
2011,03,02,01,30,2.90
2011,03,02,01,31,3.20
2011,03,02,01,32,0.90
2011,03,02,01,33,1.90
2011,03,02,01,34,2.20
2011,03,02,01,35,0.30
2011,03,02,01,36,2.20
2011,03,02,01,37,3.10
2011,03,02,01,38,6.40
2011,03,02,01,39,7.70
2011,03,02,01,40,10.10
2011,03,02,01,41,4.60
2011,03,02,01,42,0.20
2011,03,02,01,43,1.10
2011,03,02,01,44,2.80
2011,03,02,01,45,1.50
2011,03,02,01,46,0.90
2011,03,02,01,47,0.60
2011,03,02,01,48,5.60
2011,03,02,01,49,3.70
2011,03,02,01,50,2.50
2011,03,02,01,51,4.30
2011,03,02,01,52,5.90
2011,03,02,01,53,3.00
2011,03,02,01,54,6.10
2011,03,02,01,55,2.50
2011,03,02,01,56,2.00
2011,03,02,01,57,5.80
2011,03,02,01,58,2.60
2011,03,02,01,59,1.10
2011,03,02,02,00,1.90
2011,03,02,02,01,2.90
2011,03,02,02,02,7.80
2011,03,02,02,03,1.40
2011,03,02,02,04,5.90
2011,03,02,02,05,0.50
2011,03,02,02,06,5.70
2011,03,02,02,07,2.50
2011,03,02,02,08,5.40
2011,03,02,02,09,1.70
2011,03,02,02,10,2.70
2011,03,02,02,11,2.50
2011,03,02,02,12,2.50
2011,03,02,02,13,1.90
2011,03,02,02,14,0.80
2011,03,02,02,15,5.00
2011,03,02,02,16,1.70
2011,03,02,02,17,1.40
2011,03,02,02,18,1.10
2011,03,02,02,19,3.10
2011,03,02,02,20,1.20
2011,03,02,02,21,1.70
2011,03,02,02,22,0.80
2011,03,02,02,23,3.60
2011,03,02,02,24,1.20
2011,03,02,02,25,5.50
2011,03,02,02,26,4.10
2011,03,02,02,27,0.70
2011,03,02,02,28,1.90
2011,03,02,02,29,3.90
2011,03,02,02,30,2.40
2011,03,02,02,31,1.40
2011,03,02,02,32,3.50
2011,03,02,02,33,4.20
2011,03,02,02,34,1.90
2011,03,02,02,35,1.60
2011,03,02,02,36,1.90
2011,03,02,02,37,1.10
2011,03,02,02,38,2.30
2011,03,02,02,39,0.80
2011,03,02,02,40,1.10
2011,03,02,02,41,4.40
2011,03,02,02,42,2.50
2011,03,02,02,43,0.90
2011,03,02,02,44,2.50
2011,03,02,02,45,2.30
2011,03,02,02,46,1.70
2011,03,02,02,47,0.20
2011,03,02,02,48,0.20
2011,03,02,02,49,9.20
2011,03,02,02,50,6.40
2011,03,02,02,51,5.00
2011,03,02,02,52,7.20
2011,03,02,02,53,3.20
2011,03,02,02,54,1.90
2011,03,02,02,55,3.60
2011,03,02,02,56,2.30
2011,03,02,02,57,3.30
2011,03,02,02,58,3.60
2011,03,02,02,59,4.00
2011,03,02,03,00,1.80
2011,03,02,03,01,2.50
2011,03,02,03,02,4.10
2011,03,02,03,03,9.20
2011,03,02,03,04,5.40
2011,03,02,03,05,4.50
2011,03,02,03,06,3.20
2011,03,02,03,07,1.40
2011,03,02,03,08,3.50
2011,03,02,03,09,7.70
2011,03,02,03,10,4.30
2011,03,02,03,11,4.00
2011,03,02,03,12,2.00
2011,03,02,03,13,8.90
2011,03,02,03,14,4.50
2011,03,02,03,15,1.10
2011,03,02,03,16,0.50
2011,03,02,03,17,2.60
2011,03,02,03,18,0.30
2011,03,02,03,19,0.20
2011,03,02,03,20,0.70
2011,03,02,03,21,1.30
2011,03,02,03,22,2.60
2011,03,02,03,23,0.90
2011,03,02,03,24,0.50
2011,03,02,03,25,0.00
2011,03,02,03,26,1.80
2011,03,02,03,27,2.60
2011,03,02,03,28,0.30
2011,03,02,03,29,0.10
2011,03,02,03,30,0.00
2011,03,02,03,31,0.50
2011,03,02,03,32,1.40
2011,03,02,03,33,1.40
2011,03,02,03,34,2.60
2011,03,02,03,35,2.50
2011,03,02,03,36,1.70
2011,03,02,03,37,1.40
2011,03,02,03,38,1.00
2011,03,02,03,39,1.90
2011,03,02,03,40,1.40
2011,03,02,03,41,6.70
2011,03,02,03,42,9.60
2011,03,02,03,43,5.00
2011,03,02,03,44,18.00
2011,03,02,03,45,13.50
2011,03,02,03,46,10.60
2011,03,02,03,47,14.60
2011,03,02,03,48,7.30
2011,03,02,03,49,11.20
2011,03,02,03,50,12.00
2011,03,02,03,51,7.90
2011,03,02,03,52,11.40
2011,03,02,03,53,6.90
2011,03,02,03,54,5.80
2011,03,02,03,55,7.40
2011,03,02,03,56,4.90
2011,03,02,03,57,11.30
2011,03,02,03,58,10.30
2011,03,02,03,59,13.10
2011,03,02,04,00,10.90
2011,03,02,04,01,6.40
2011,03,02,04,02,9.30
2011,03,02,04,03,6.80
2011,03,02,04,04,7.30
2011,03,02,04,05,3.10
2011,03,02,04,06,1.50
2011,03,02,04,07,3.00
2011,03,02,04,08,1.00
2011,03,02,04,09,1.80
2011,03,02,04,10,4.80
2011,03,02,04,11,6.20
2011,03,02,04,12,6.80
2011,03,02,04,13,6.30
2011,03,02,04,14,5.50
2011,03,02,04,15,4.20
2011,03,02,04,16,3.30
2011,03,02,04,17,3.90
2011,03,02,04,18,4.00
2011,03,02,04,19,5.30
2011,03,02,04,20,5.30
2011,03,02,04,21,7.60
2011,03,02,04,22,6.00
2011,03,02,04,23,6.80
2011,03,02,04,24,8.70
2011,03,02,04,25,10.70
2011,03,02,04,26,16.60
2011,03,02,04,27,13.00
2011,03,02,04,28,6.70
2011,03,02,04,29,5.20
2011,03,02,04,30,3.80
2011,03,02,04,31,14.10
2011,03,02,04,32,8.60
2011,03,02,04,33,15.80
2011,03,02,04,34,11.70
2011,03,02,04,35,6.30
2011,03,02,04,36,15.70
2011,03,02,04,37,13.10
2011,03,02,04,38,16.20
2011,03,02,04,39,17.30
2011,03,02,04,40,18.70
2011,03,02,04,41,21.70
2011,03,02,04,42,24.10
2011,03,02,04,43,15.50
2011,03,02,04,44,24.70
2011,03,02,04,45,17.40
2011,03,02,04,46,19.70
2011,03,02,04,47,24.40
2011,03,02,04,48,18.80
2011,03,02,04,49,24.40
2011,03,02,04,50,23.50
2011,03,02,04,51,27.30
2011,03,02,04,52,29.80
2011,03,02,04,53,22.00
2011,03,02,04,54,28.50
2011,03,02,04,55,34.40
2011,03,02,04,56,29.50
2011,03,02,04,57,23.70
2011,03,02,04,58,22.00
2011,03,02,04,59,22.50
2011,03,02,05,00,27.00
2011,03,02,05,01,26.20
2011,03,02,05,02,25.40
2011,03,02,05,03,27.10
2011,03,02,05,04,24.10
2011,03,02,05,05,19.40
2011,03,02,05,06,16.70
2011,03,02,05,07,24.40
2011,03,02,05,08,31.70
2011,03,02,05,09,19.00
2011,03,02,05,10,25.10
2011,03,02,05,11,23.40
2011,03,02,05,12,20.00
2011,03,02,05,13,25.10
2011,03,02,05,14,25.80
2011,03,02,05,15,23.00
2011,03,02,05,16,24.30
2011,03,02,05,17,28.10
2011,03,02,05,18,23.20
2011,03,02,05,19,14.60
2011,03,02,05,20,26.80
2011,03,02,05,21,26.90
2011,03,02,05,22,21.30
2011,03,02,05,23,24.60
2011,03,02,05,24,28.70
2011,03,02,05,25,31.90
2011,03,02,05,26,29.50
2011,03,02,05,27,28.80
2011,03,02,05,28,21.50
2011,03,02,05,29,24.00
2011,03,02,05,30,19.50
2011,03,02,05,31,22.50
2011,03,02,05,32,24.60
2011,03,02,05,33,28.80
2011,03,02,05,34,24.30
2011,03,02,05,35,20.40
2011,03,02,05,36,19.20
2011,03,02,05,37,30.70
2011,03,02,05,38,27.60
2011,03,02,05,39,19.70
2011,03,02,05,40,27.60
2011,03,02,05,41,23.90
2011,03,02,05,42,18.40
2011,03,02,05,43,15.90
2011,03,02,05,44,19.90
2011,03,02,05,45,21.90
2011,03,02,05,46,17.40
2011,03,02,05,47,20.80
2011,03,02,05,48,17.00
2011,03,02,05,49,20.80
2011,03,02,05,50,24.60
2011,03,02,05,51,19.40
2011,03,02,05,52,22.50
2011,03,02,05,53,15.80
2011,03,02,05,54,19.90
2011,03,02,05,55,15.80
2011,03,02,05,56,20.10
2011,03,02,05,57,16.00
2011,03,02,05,58,22.10
2011,03,02,05,59,17.40
2011,03,02,06,00,18.50
2011,03,02,06,01,17.20
2011,03,02,06,02,16.40
2011,03,02,06,03,18.00
2011,03,02,06,04,13.70
2011,03,02,06,05,13.90
2011,03,02,06,06,21.90
2011,03,02,06,07,17.20
2011,03,02,06,08,8.50
2011,03,02,06,09,19.70
2011,03,02,06,10,19.80
2011,03,02,06,11,18.10
2011,03,02,06,12,12.90
2011,03,02,06,13,15.30
2011,03,02,06,14,18.50
2011,03,02,06,15,12.60
2011,03,02,06,16,13.00
2011,03,02,06,17,14.10
2011,03,02,06,18,19.80
2011,03,02,06,19,18.90
2011,03,02,06,20,19.80
2011,03,02,06,21,14.40
2011,03,02,06,22,11.40
2011,03,02,06,23,12.60
2011,03,02,06,24,16.20
2011,03,02,06,25,19.10
2011,03,02,06,26,14.20
2011,03,02,06,27,18.90
2011,03,02,06,28,18.00
2011,03,02,06,29,14.70
2011,03,02,06,30,18.00
2011,03,02,06,31,12.90
2011,03,02,06,32,15.00
2011,03,02,06,33,23.50
2011,03,02,06,34,15.80
2011,03,02,06,35,15.80
2011,03,02,06,36,11.60
2011,03,02,06,37,16.00
2011,03,02,06,38,16.20
2011,03,02,06,39,20.40
2011,03,02,06,40,16.40
2011,03,02,06,41,16.80
2011,03,02,06,42,18.50
2011,03,02,06,43,16.50
2011,03,02,06,44,17.00
2011,03,02,06,45,14.90
2011,03,02,06,46,19.00
2011,03,02,06,47,11.70
2011,03,02,06,48,20.70
2011,03,02,06,49,13.70
2011,03,02,06,50,18.90
2011,03,02,06,51,18.30
2011,03,02,06,52,18.20
2011,03,02,06,53,19.80
2011,03,02,06,54,21.60
2011,03,02,06,55,14.80
2011,03,02,06,56,17.50
2011,03,02,06,57,18.00
2011,03,02,06,58,19.30
2011,03,02,06,59,18.70
2011,03,02,07,00,12.00
2011,03,02,07,01,14.80
2011,03,02,07,02,20.90
2011,03,02,07,03,15.50
2011,03,02,07,04,15.90
2011,03,02,07,05,14.50
2011,03,02,07,06,25.70
2011,03,02,07,07,13.30
2011,03,02,07,08,18.20
2011,03,02,07,09,17.00
2011,03,02,07,10,21.00
2011,03,02,07,11,22.60
2011,03,02,07,12,21.60
2011,03,02,07,13,21.70
2011,03,02,07,14,15.90
2011,03,02,07,15,15.40
2011,03,02,07,16,17.20
2011,03,02,07,17,15.20
2011,03,02,07,18,15.60
2011,03,02,07,19,20.30
2011,03,02,07,20,20.00
2011,03,02,07,21,16.00
2011,03,02,07,22,22.40
2011,03,02,07,23,13.80
2011,03,02,07,24,21.90
2011,03,02,07,25,22.00
2011,03,02,07,26,18.30
2011,03,02,07,27,17.00
2011,03,02,07,28,16.50
2011,03,02,07,29,20.30
2011,03,02,07,30,19.50
2011,03,02,07,31,18.50
2011,03,02,07,32,17.70
2011,03,02,07,33,18.00
2011,03,02,07,34,17.40
2011,03,02,07,35,24.10
2011,03,02,07,36,20.40
2011,03,02,07,37,13.40
2011,03,02,07,38,21.20
2011,03,02,07,39,18.40
2011,03,02,07,40,20.70
2011,03,02,07,41,20.20
2011,03,02,07,42,18.60
2011,03,02,07,43,15.80
2011,03,02,07,44,15.70
2011,03,02,07,45,24.10
2011,03,02,07,46,25.50
2011,03,02,07,47,26.90
2011,03,02,07,48,17.10
2011,03,02,07,49,19.40
2011,03,02,07,50,21.20
2011,03,02,07,51,23.00
2011,03,02,07,52,21.80
2011,03,02,07,53,19.80
2011,03,02,07,54,19.80
2011,03,02,07,55,18.00
2011,03,02,07,56,23.40
2011,03,02,07,57,18.80
2011,03,02,07,58,19.70
2011,03,02,07,59,19.70
2011,03,02,08,00,25.70
2011,03,02,08,01,19.80
2011,03,02,08,02,15.60
2011,03,02,08,03,13.60
2011,03,02,08,04,19.70
2011,03,02,08,05,25.70
2011,03,02,08,06,22.30
2011,03,02,08,07,15.80
2011,03,02,08,08,16.00
2011,03,02,08,09,11.30
2011,03,02,08,10,9.10
2011,03,02,08,11,11.90
2011,03,02,08,12,14.70
2011,03,02,08,13,18.40
2011,03,02,08,14,15.00
2011,03,02,08,15,17.00
2011,03,02,08,16,12.60
2011,03,02,08,17,8.70
2011,03,02,08,18,8.00
2011,03,02,08,19,6.30
2011,03,02,08,20,6.60
2011,03,02,08,21,11.70
2011,03,02,08,22,13.10
2011,03,02,08,23,16.40
2011,03,02,08,24,12.80
2011,03,02,08,25,14.20
2011,03,02,08,26,12.10
2011,03,02,08,27,5.90
2011,03,02,08,28,5.80
2011,03,02,08,29,3.00
2011,03,02,08,30,4.20
2011,03,02,08,31,3.40
2011,03,02,08,32,4.90
2011,03,02,08,33,3.60
2011,03,02,08,34,4.40
2011,03,02,08,35,3.90
2011,03,02,08,36,5.30
2011,03,02,08,37,6.40
2011,03,02,08,38,2.50
2011,03,02,08,39,2.20
2011,03,02,08,40,1.40
2011,03,02,08,41,3.60
2011,03,02,08,42,3.90
2011,03,02,08,43,6.40
2011,03,02,08,44,3.80
2011,03,02,08,45,2.50
2011,03,02,08,46,0.80
2011,03,02,08,47,0.70
2011,03,02,08,48,1.40
2011,03,02,08,49,2.80
2011,03,02,08,50,5.30
2011,03,02,08,51,4.20
2011,03,02,08,52,6.80
2011,03,02,08,53,5.90
2011,03,02,08,54,3.70
2011,03,02,08,55,8.40
2011,03,02,08,56,4.90
2011,03,02,08,57,5.50
2011,03,02,08,58,7.00
2011,03,02,08,59,5.40
2011,03,02,09,00,3.80
2011,03,02,09,01,11.10
2011,03,02,09,02,11.30
2011,03,02,09,03,13.30
2011,03,02,09,04,11.50
2011,03,02,09,05,6.20
2011,03,02,09,06,5.50
2011,03,02,09,07,5.40
2011,03,02,09,08,7.30
2011,03,02,09,09,8.50
2011,03,02,09,10,11.10
2011,03,02,09,11,10.20
2011,03,02,09,12,5.80
2011,03,02,09,13,6.90
2011,03,02,09,14,11.70
2011,03,02,09,15,12.40
2011,03,02,09,16,7.60
2011,03,02,09,17,6.40
2011,03,02,09,18,5.60
2011,03,02,09,19,8.00
2011,03,02,09,20,3.90
2011,03,02,09,21,9.70
2011,03,02,09,22,12.80
2011,03,02,09,23,7.90
2011,03,02,09,24,6.70
2011,03,02,09,25,8.60
2011,03,02,09,26,4.60
2011,03,02,09,27,3.70
2011,03,02,09,28,4.10
2011,03,02,09,29,9.10
2011,03,02,09,30,8.60
2011,03,02,09,31,8.30
2011,03,02,09,32,13.30
2011,03,02,09,33,9.20
2011,03,02,09,34,9.00
2011,03,02,09,35,7.90
2011,03,02,09,36,17.20
2011,03,02,09,37,13.60
2011,03,02,09,38,6.60
2011,03,02,09,39,11.80
2011,03,02,09,40,9.40
2011,03,02,09,41,8.70
2011,03,02,09,42,14.00
2011,03,02,09,43,6.60
2011,03,02,09,44,5.70
2011,03,02,09,45,6.40
2011,03,02,09,46,6.90
2011,03,02,09,47,4.80
2011,03,02,09,48,8.60
2011,03,02,09,49,8.90
2011,03,02,09,50,5.00
2011,03,02,09,51,1.90
2011,03,02,09,52,11.90
2011,03,02,09,53,3.50
2011,03,02,09,54,4.40
2011,03,02,09,55,6.00
2011,03,02,09,56,3.40
2011,03,02,09,57,8.70
2011,03,02,09,58,10.40
2011,03,02,09,59,7.50
2011,03,02,10,00,11.80
2011,03,02,10,01,4.10
2011,03,02,10,02,11.90
2011,03,02,10,03,11.70
2011,03,02,10,04,4.80
2011,03,02,10,05,2.70
2011,03,02,10,06,4.70
2011,03,02,10,07,5.80
2011,03,02,10,08,3.30
2011,03,02,10,09,4.70
2011,03,02,10,10,4.00
2011,03,02,10,11,2.60
2011,03,02,10,12,2.20
2011,03,02,10,13,2.50
2011,03,02,10,14,2.80
2011,03,02,10,15,2.50
2011,03,02,10,16,2.40
2011,03,02,10,17,8.00
2011,03,02,10,18,3.50
2011,03,02,10,19,8.40
2011,03,02,10,20,11.60
2011,03,02,10,21,9.80
2011,03,02,10,22,16.20
2011,03,02,10,23,12.50
2011,03,02,10,24,14.80
2011,03,02,10,25,9.10
2011,03,02,10,26,4.90
2011,03,02,10,27,7.50
2011,03,02,10,28,7.60
2011,03,02,10,29,7.00
2011,03,02,10,30,7.40
2011,03,02,10,31,4.50
2011,03,02,10,32,7.50
2011,03,02,10,33,5.30
2011,03,02,10,34,5.50
2011,03,02,10,35,5.20
2011,03,02,10,36,8.40
2011,03,02,10,37,6.30
2011,03,02,10,38,8.10
2011,03,02,10,39,4.60
2011,03,02,10,40,6.70
2011,03,02,10,41,8.40
2011,03,02,10,42,13.60
2011,03,02,10,43,13.60
2011,03,02,10,44,9.40
2011,03,02,10,45,13.60
2011,03,02,10,46,12.40
2011,03,02,10,47,15.90
2011,03,02,10,48,16.30
2011,03,02,10,49,10.10
2011,03,02,10,50,14.40
2011,03,02,10,51,6.40
2011,03,02,10,52,13.50
2011,03,02,10,53,14.10
2011,03,02,10,54,6.40
2011,03,02,10,55,6.50
2011,03,02,10,56,4.50
2011,03,02,10,57,7.30
2011,03,02,10,58,3.80
2011,03,02,10,59,5.20
2011,03,02,11,00,5.70
2011,03,02,11,01,2.50
2011,03,02,11,02,2.40
2011,03,02,11,03,2.90
2011,03,02,11,04,3.10
2011,03,02,11,05,4.50
2011,03,02,11,06,5.10
2011,03,02,11,07,5.00
2011,03,02,11,08,6.60
2011,03,02,11,09,7.10
2011,03,02,11,10,5.80
2011,03,02,11,11,5.80
2011,03,02,11,12,3.10
2011,03,02,11,13,3.20
2011,03,02,11,14,3.00
2011,03,02,11,15,4.00
2011,03,02,11,16,4.60
2011,03,02,11,17,3.00
2011,03,02,11,18,4.30
2011,03,02,11,19,3.70
2011,03,02,11,20,6.40
2011,03,02,11,21,1.10
2011,03,02,11,22,2.10
2011,03,02,11,23,8.50
2011,03,02,11,24,5.70
2011,03,02,11,25,7.20
2011,03,02,11,26,3.00
2011,03,02,11,27,8.90
2011,03,02,11,28,10.10
2011,03,02,11,29,10.70
2011,03,02,11,30,13.70
2011,03,02,11,31,16.80
2011,03,02,11,32,12.20
2011,03,02,11,33,9.40
2011,03,02,11,34,7.30
2011,03,02,11,35,9.90
2011,03,02,11,36,6.50
2011,03,02,11,37,7.40
2011,03,02,11,38,13.60
2011,03,02,11,39,7.20
2011,03,02,11,40,8.80
2011,03,02,11,41,9.00
2011,03,02,11,42,9.10
2011,03,02,11,43,5.80
2011,03,02,11,44,6.70
2011,03,02,11,45,9.00
2011,03,02,11,46,5.20
2011,03,02,11,47,5.30
2011,03,02,11,48,6.90
2011,03,02,11,49,5.30
2011,03,02,11,50,4.80
2011,03,02,11,51,5.40
2011,03,02,11,52,11.10
2011,03,02,11,53,11.20
2011,03,02,11,54,8.10
2011,03,02,11,55,9.20
2011,03,02,11,56,4.70
2011,03,02,11,57,10.90
2011,03,02,11,58,11.20
2011,03,02,11,59,8.60
2011,03,02,12,00,8.40
2011,03,02,12,01,8.50
2011,03,02,12,02,13.60
2011,03,02,12,03,22.10
2011,03,02,12,04,11.40
2011,03,02,12,05,12.10
2011,03,02,12,06,14.20
2011,03,02,12,07,17.10
2011,03,02,12,08,14.10
2011,03,02,12,09,8.70
2011,03,02,12,10,11.20
2011,03,02,12,11,16.00
2011,03,02,12,12,11.40
2011,03,02,12,13,9.50
2011,03,02,12,14,16.90
2011,03,02,12,15,15.30
2011,03,02,12,16,14.90
2011,03,02,12,17,9.20
2011,03,02,12,18,13.20
2011,03,02,12,19,9.40
2011,03,02,12,20,6.20
2011,03,02,12,21,8.60
2011,03,02,12,22,9.90
2011,03,02,12,23,7.00
2011,03,02,12,24,15.20
2011,03,02,12,25,12.70
2011,03,02,12,26,10.10
2011,03,02,12,27,5.30
2011,03,02,12,28,8.30
2011,03,02,12,29,4.60
2011,03,02,12,30,9.00
2011,03,02,12,31,6.90
2011,03,02,12,32,9.40
2011,03,02,12,33,4.80
2011,03,02,12,34,5.60
2011,03,02,12,35,3.70
2011,03,02,12,36,5.00
2011,03,02,12,37,9.40
2011,03,02,12,38,4.60
2011,03,02,12,39,9.60
2011,03,02,12,40,4.90
2011,03,02,12,41,9.50
2011,03,02,12,42,7.20
2011,03,02,12,43,9.70
2011,03,02,12,44,9.40
2011,03,02,12,45,6.70
2011,03,02,12,46,12.40
2011,03,02,12,47,10.20
2011,03,02,12,48,12.10
2011,03,02,12,49,7.20
2011,03,02,12,50,9.70
2011,03,02,12,51,15.20
2011,03,02,12,52,8.10
2011,03,02,12,53,9.40
2011,03,02,12,54,7.70
2011,03,02,12,55,6.90
2011,03,02,12,56,20.60
2011,03,02,12,57,10.30
2011,03,02,12,58,9.80
2011,03,02,12,59,12.50
2011,03,02,13,00,14.90
2011,03,02,13,01,11.80
2011,03,02,13,02,13.60
2011,03,02,13,03,16.50
2011,03,02,13,04,14.30
2011,03,02,13,05,7.70
2011,03,02,13,06,7.40
2011,03,02,13,07,11.00
2011,03,02,13,08,9.10
2011,03,02,13,09,11.90
2011,03,02,13,10,15.80
2011,03,02,13,11,14.00
2011,03,02,13,12,13.20
2011,03,02,13,13,16.30
2011,03,02,13,14,17.20
2011,03,02,13,15,14.20
2011,03,02,13,16,9.80
2011,03,02,13,17,19.10
2011,03,02,13,18,18.10
2011,03,02,13,19,11.50
2011,03,02,13,20,11.30
2011,03,02,13,21,12.00
2011,03,02,13,22,14.10
2011,03,02,13,23,13.60
2011,03,02,13,24,15.80
2011,03,02,13,25,13.00
2011,03,02,13,26,11.00
2011,03,02,13,27,8.40
2011,03,02,13,28,9.20
2011,03,02,13,29,6.30
2011,03,02,13,30,7.50
2011,03,02,13,31,5.50
2011,03,02,13,32,7.90
2011,03,02,13,33,11.90
2011,03,02,13,34,6.20
2011,03,02,13,35,6.00
2011,03,02,13,36,6.50
2011,03,02,13,37,6.90
2011,03,02,13,38,5.70
2011,03,02,13,39,4.60
2011,03,02,13,40,4.60
2011,03,02,13,41,7.60
2011,03,02,13,42,6.50
2011,03,02,13,43,7.70
2011,03,02,13,44,11.40
2011,03,02,13,45,10.90
2011,03,02,13,46,10.40
2011,03,02,13,47,7.60
2011,03,02,13,48,5.60
2011,03,02,13,49,10.80
2011,03,02,13,50,11.20
2011,03,02,13,51,5.00
2011,03,02,13,52,14.10
2011,03,02,13,53,10.80
2011,03,02,13,54,6.40
2011,03,02,13,55,8.60
2011,03,02,13,56,7.50
2011,03,02,13,57,11.40
2011,03,02,13,58,11.30
2011,03,02,13,59,10.80
2011,03,02,14,00,16.50
2011,03,02,14,01,8.00
2011,03,02,14,02,16.00
2011,03,02,14,03,14.10
2011,03,02,14,04,6.40
2011,03,02,14,05,6.50
2011,03,02,14,06,8.20
2011,03,02,14,07,11.00
2011,03,02,14,08,17.70
2011,03,02,14,09,12.70
2011,03,02,14,10,12.90
2011,03,02,14,11,14.10
2011,03,02,14,12,12.50
2011,03,02,14,13,9.90
2011,03,02,14,14,5.10
2011,03,02,14,15,11.10
2011,03,02,14,16,9.80
2011,03,02,14,17,8.40
2011,03,02,14,18,6.50
2011,03,02,14,19,10.20
2011,03,02,14,20,9.20
2011,03,02,14,21,5.80
2011,03,02,14,22,8.10
2011,03,02,14,23,9.60
2011,03,02,14,24,14.70
2011,03,02,14,25,13.60
2011,03,02,14,26,14.10
2011,03,02,14,27,11.70
2011,03,02,14,28,11.60
2011,03,02,14,29,16.70
2011,03,02,14,30,13.90
2011,03,02,14,31,20.80
2011,03,02,14,32,12.40
2011,03,02,14,33,7.50
2011,03,02,14,34,13.00
2011,03,02,14,35,12.40
2011,03,02,14,36,13.60
2011,03,02,14,37,11.90
2011,03,02,14,38,11.30
2011,03,02,14,39,9.70
2011,03,02,14,40,13.00
2011,03,02,14,41,21.10
2011,03,02,14,42,8.20
2011,03,02,14,43,17.40
2011,03,02,14,44,10.00
2011,03,02,14,45,13.00
2011,03,02,14,46,14.30
2011,03,02,14,47,16.10
2011,03,02,14,48,8.10
2011,03,02,14,49,11.60
2011,03,02,14,50,9.40
2011,03,02,14,51,10.50
2011,03,02,14,52,10.60
2011,03,02,14,53,15.90
2011,03,02,14,54,13.60
2011,03,02,14,55,10.10
2011,03,02,14,56,12.30
2011,03,02,14,57,6.60
2011,03,02,14,58,5.50
2011,03,02,14,59,6.40
2011,03,02,15,00,3.90
2011,03,02,15,01,10.30
2011,03,02,15,02,13.10
2011,03,02,15,03,10.70
2011,03,02,15,04,6.40
2011,03,02,15,05,6.20
2011,03,02,15,06,6.80
2011,03,02,15,07,5.00
2011,03,02,15,08,6.20
2011,03,02,15,09,2.50
2011,03,02,15,10,4.00
2011,03,02,15,11,2.10
2011,03,02,15,12,2.10
2011,03,02,15,13,4.30
2011,03,02,15,14,5.00
2011,03,02,15,15,5.70
2011,03,02,15,16,2.00
2011,03,02,15,17,0.60
2011,03,02,15,18,3.40
2011,03,02,15,19,5.70
2011,03,02,15,20,5.70
2011,03,02,15,21,4.60
2011,03,02,15,22,5.40
2011,03,02,15,23,2.10
2011,03,02,15,24,10.40
2011,03,02,15,25,8.70
2011,03,02,15,26,10.00
2011,03,02,15,27,5.00
2011,03,02,15,28,6.30
2011,03,02,15,29,3.70
2011,03,02,15,30,3.60
2011,03,02,15,31,5.50
2011,03,02,15,32,8.90
2011,03,02,15,33,7.70
2011,03,02,15,34,6.90
2011,03,02,15,35,9.60
2011,03,02,15,36,4.90
2011,03,02,15,37,7.90
2011,03,02,15,38,6.60
2011,03,02,15,39,6.10
2011,03,02,15,40,4.00
2011,03,02,15,41,6.80
2011,03,02,15,42,6.60
2011,03,02,15,43,5.90
2011,03,02,15,44,11.30
2011,03,02,15,45,11.20
2011,03,02,15,46,13.90
2011,03,02,15,47,6.70
2011,03,02,15,48,9.10
2011,03,02,15,49,5.70
2011,03,02,15,50,6.90
2011,03,02,15,51,12.30
2011,03,02,15,52,10.90
2011,03,02,15,53,4.50
2011,03,02,15,54,9.90
2011,03,02,15,55,16.90
2011,03,02,15,56,17.50
2011,03,02,16,06,0.00
2011,03,02,16,07,0.00
2011,03,02,16,08,0.00
2011,03,02,16,09,0.30
2011,03,02,16,10,0.00
2011,03,02,16,11,0.00
2011,03,02,16,12,1.30
2011,03,02,16,13,0.20
2011,03,02,16,14,0.10
2011,03,02,16,15,0.00
2011,03,02,16,16,0.00
2011,03,02,16,17,0.00
2011,03,02,16,18,0.10
2011,03,02,16,19,0.90
2011,03,02,16,20,0.10
2011,03,02,16,21,0.30
2011,03,02,16,22,0.00
2011,03,02,16,23,0.00
2011,03,02,16,24,0.00
2011,03,02,16,25,0.00
2011,03,02,16,26,0.00
2011,03,02,16,27,0.40
2011,03,02,16,28,0.00
2011,03,02,16,29,0.00
2011,03,02,16,30,0.00
2011,03,02,16,31,0.10
2011,03,02,16,32,0.00
2011,03,02,16,33,0.10
2011,03,02,16,34,0.70
2011,03,02,16,35,2.50
2011,03,02,16,36,1.80
2011,03,02,16,37,0.50
2011,03,02,16,38,0.00
2011,03,02,16,39,0.10
2011,03,02,16,40,0.40
2011,03,02,16,41,0.30
2011,03,02,16,42,0.00
2011,03,02,16,43,0.10
2011,03,02,16,44,0.20
2011,03,02,16,45,0.10
2011,03,02,16,46,0.00
2011,03,02,16,47,0.10
2011,03,02,16,48,0.00
2011,03,02,16,49,0.20
2011,03,02,16,50,0.10
2011,03,02,16,51,0.10
2011,03,02,16,52,0.80
2011,03,02,16,53,0.30
2011,03,02,16,54,0.30
2011,03,02,16,55,0.00
2011,03,02,16,56,0.30
2011,03,02,16,57,0.00
2011,03,02,16,58,0.00
2011,03,02,16,59,0.10
2011,03,02,17,00,0.30
2011,03,02,17,01,0.00
2011,03,02,17,02,0.00
2011,03,02,17,03,0.20
2011,03,02,17,04,0.00
2011,03,02,17,05,0.60
2011,03,02,17,06,1.40
2011,03,02,17,07,1.90
2011,03,02,17,08,2.00
2011,03,02,17,09,1.30
2011,03,02,17,10,1.60
2011,03,02,17,11,1.20
2011,03,02,17,12,0.70
2011,03,02,17,13,0.50
2011,03,02,17,14,1.90
2011,03,02,17,15,2.60
2011,03,02,17,16,2.00
2011,03,02,17,17,0.00
2011,03,02,17,18,0.00
2011,03,02,17,19,0.30
2011,03,02,17,20,1.10
2011,03,02,17,21,1.40
2011,03,02,17,22,1.10
2011,03,02,17,23,0.90
2011,03,02,17,24,4.10
2011,03,02,17,25,1.50
2011,03,02,17,26,3.10
2011,03,02,17,27,2.70
2011,03,02,17,28,2.10
2011,03,02,17,29,0.80
2011,03,02,17,30,2.50
2011,03,02,17,31,1.30
2011,03,02,17,32,0.90
2011,03,02,17,33,0.80
2011,03,02,17,34,1.40
2011,03,02,17,35,0.60
2011,03,02,17,36,0.20
2011,03,02,17,37,0.50
2011,03,02,17,38,0.90
2011,03,02,17,39,0.20
2011,03,02,17,40,0.80
2011,03,02,17,41,1.30
2011,03,02,17,42,0.70
2011,03,02,17,43,0.30
2011,03,02,17,44,0.00
2011,03,02,17,45,0.90
2011,03,02,17,46,2.50
2011,03,02,17,47,2.80
2011,03,02,17,48,2.50
2011,03,02,17,49,1.90
2011,03,02,17,50,0.20
2011,03,02,17,51,0.80
2011,03,02,17,52,0.10
2011,03,02,17,53,0.40
2011,03,02,17,54,1.60
2011,03,02,17,55,1.60
2011,03,02,17,56,3.00
2011,03,02,17,57,2.00